Weather WX

World > North America > United States > Ohio

Helena, Ohio Regional Weather

Lat: 41.34N, Lon: 83.29W
Wx Zone: OHZ008
Warning FLW WEATHER ALERT - FLASH FLOOD WATCH (More Info. Click Here) Warning
Feedback

Helena, OH Regional Weather

Expires:201906152300;;128793
ASUS41 KCLE 152212
RWRCLE
OHIO REGIONAL WEATHER ROUNDUP
NATIONAL WEATHER SERVICE WILMINGTON, OH
600 PM EDT SAT JUN 15 2019

NOTE: "FAIR" INDICATES FEW OR NO CLOUDS BELOW 12,000 FEET WITH NO
SIGNIFICANT WEATHER AND/OR OBSTRUCTIONS TO VISIBILITY.


OHZ001>008-015>018-024>027-034-035-043-044-152300-
   NORTHWEST OHIO
  
CITY           SKY/WX    TMP DP  RH WIND       PRES   REMARKS
DEFIANCE       LGT RAIN  67  64  90 S12G20    29.86R                  
FINDLAY        RAIN      67  64  90 S14G23    29.88R FOG              
TOLEDO EXPRESS LGT RAIN  69  64  84 S9        29.84R                  
TOLEDO EXEC    LGT RAIN  67  65  93 S12       29.85F FOG              
LIMA           LGT RAIN  67  64  90 SW14G22   29.89R                  
$$
 

SKY/WX - Weather  TMP - Temperature  DP - Dew Point  RH - Relative Humidity
WIND - Wind Direction/Speed PRES - Barometric Pressure VSB - Visibility
WCI - Wind Chill Index E13G22 Wind - East Wind 13 mph/Gusts of 22 mph